Wind_Speed
7 7 7 7 7 8 9 10 11 11 11 12 11 11 10 9 8 6 5 3 2 2 2 2 3 4 6 7 8 9 9 9 8 8 8 8 8 7 7 7 6 6 5 5 5 5 5 5 6
6 6 6 6 7 8 8 9 11 10 10 10 11 12 11 10 8 6 4 3 2 1 1 2 3 4 5 6 7 8 8 8 7 7 8 7 7 8 7 6 6 5 5 5 5 5 5 5 6
6 6 6 7 7 7 7 8 10 10 9 10 11 11 10 10 8 6 4 3 2 2 1 2 3 4 5 6 6 7 7 6 6 6 7 7 6 7 7 6 6 5 5 5 5 5 5 5 5
6 6 6 7 7 7 6 6 7 8 9 10 10 9 9 9 8 6 4 2 1 1 2 2 3 3 4 5 5 6 6 6 6 6 6 6 6 6 6 6 6 5 5 5 5 5 4 4 5
7 7 7 7 7 7 6 7 6 6 8 9 9 9 9 9 8 7 5 2 0 1 2 2 3 3 3 4 5 5 5 5 6 6 6 6 5 4 5 5 6 5 5 4 4 4 4 4 4
8 8 8 8 8 7 7 6 5 5 7 9 9 10 9 9 8 7 5 2 1 1 2 2 3 3 3 3 4 4 4 4 5 5 5 5 4 3 4 5 4 4 4 4 3 3 3 3 3
9 9 9 9 9 8 7 6 6 6 7 9 9 10 10 9 9 7 5 3 1 2 2 3 3 4 4 3 4 4 4 3 3 4 4 4 3 3 3 4 3 3 3 3 3 2 2 2 3
10 10 11 10 10 10 8 6 5 6 6 7 8 9 10 9 9 8 5 4 2 2 2 3 4 4 4 4 4 4 4 4 3 3 3 3 3 3 2 3 3 3 2 2 2 2 2 2 2
11 11 12 12 11 11 9 8 6 6 5 6 7 8 8 9 9 8 6 4 3 3 2 2 4 4 5 5 5 4 4 4 4 3 3 3 3 2 2 2 2 2 2 1 1 1 2 2 2
12 12 13 13 13 12 11 10 7 7 6 6 7 7 8 10 10 8 6 5 4 4 3 3 4 4 5 6 6 5 5 5 4 4 4 4 3 3 2 2 1 1 1 1 1 1 2 1 2
13 14 14 14 14 12 11 10 9 8 8 7 7 7 9 9 10 9 7 6 5 4 4 4 5 5 5 5 7 7 6 6 5 5 4 4 4 4 3 2 1 1 0 1 1 2 2 2 1
15 15 16 16 15 13 12 11 10 9 9 8 7 8 9 10 10 10 8 7 6 5 4 5 5 5 6 6 7 8 7 7 6 6 6 5 5 5 4 3 2 2 1 1 2 2 2 2 2
17 17 17 17 16 15 14 13 12 11 10 9 8 8 9 10 10 10 9 8 7 6 6 6 6 6 6 7 8 8 8 8 8 8 8 7 7 6 5 5 4 3 3 3 2 3 3 3 2
19 19 18 17 17 17 16 15 13 12 11 10 9 8 9 10 10 10 10 9 8 7 7 7 7 8 8 8 8 9 9 9 8 8 9 9 9 8 6 5 5 5 4 4 4 4 4 3 3
21 20 19 19 19 19 18 16 13 13 12 9 8 8 9 9 9 10 11 10 9 8 8 7 8 8 9 9 9 9 10 10 10 10 9 10 10 9 8 7 6 6 5 5 5 4 4 4 4
22 21 20 20 20 19 18 15 15 14 12 11 10 9 10 10 10 11 11 11 10 10 9 9 9 9 10 10 10 11 10 11 11 12 11 11 11 11 10 9 8 7 7 7 6 5 5 5 4
23 22 20 21 21 20 19 17 16 15 13 11 11 11 11 11 11 12 12 12 11 11 10 10 10 10 11 11 11 12 12 12 12 12 12 12 12 11 11 11 10 8 8 8 8 7 7 6 5
23 22 21 22 22 21 20 18 17 16 15 13 12 11 11 11 10 10 11 12 12 11 12 11 12 11 11 13 13 13 14 13 13 13 13 13 12 12 12 12 10 10 9 9 9 8 8 7 6
24 23 22 22 23 22 21 19 18 17 16 14 13 12 12 11 10 10 11 12 12 12 12 12 12 12 12 12 13 14 15 15 15 14 14 14 14 13 13 13 11 10 9 9 9 9 9 8 7
24 23 22 22 24 23 22 20 18 17 16 15 14 13 12 12 12 11 10 11 12 13 13 13 14 14 14 14 14 15 16 17 17 16 15 15 15 14 14 14 12 11 11 10 10 10 10 10 9
24 23 23 24 25 24 23 21 19 17 17 16 15 14 13 13 13 11 11 13 13 13 14 14 14 15 15 16 16 16 17 18 17 16 16 17 15 15 15 15 14 13 12 11 11 12 12 11 10
24 24 24 25 26 25 23 21 19 17 17 17 15 14 13 14 14 12 12 14 14 14 15 15 15 16 16 17 16 17 17 19 19 17 17 17 17 15 15 15 15 14 14 14 13 13 13 12 11
25 26 27 27 27 26 24 23 19 17 17 16 16 14 13 13 14 13 13 14 15 14 15 16 17 17 16 16 16 16 18 19 20 19 18 17 17 17 16 16 17 16 16 15 15 15 14 13 13
28 29 29 29 28 27 24 23 19 17 16 15 15 13 13 13 13 13 12 13 14 14 15 16 17 16 16 16 15 16 17 19 19 19 18 18 18 18 18 18 18 18 18 17 17 16 16 15 14
30 30 30 29 28 26 23 23 20 17 16 16 15 14 14 14 14 14 14 14 14 14 15 16 15 14 14 16 16 16 17 18 18 18 19 19 19 18 19 19 19 19 19 18 18 18 17 16 16
30 30 30 28 27 24 23 23 20 17 17 16 16 15 15 15 14 15 15 15 13 13 14 15 14 13 14 14 13 14 16 18 18 18 18 19 19 20 20 20 20 19 20 20 19 19 18 17 16
30 30 28 28 25 23 22 21 19 17 17 17 15 15 15 14 14 15 15 14 13 13 13 13 13 13 12 13 13 13 14 16 18 18 19 19 20 21 21 21 21 20 21 21 20 19 19 18 18
30 29 29 27 25 23 21 19 17 16 15 14 15 14 14 15 15 14 14 13 13 14 13 13 11 12 12 12 12 13 14 15 17 18 20 20 20 21 21 21 22 21 21 21 21 20 20 19 18
30 30 29 27 25 23 21 18 16 16 14 14 14 14 14 14 14 14 14 14 14 13 11 10 10 10 11 11 12 13 14 15 16 18 19 20 20 20 20 21 22 22 22 21 21 21 21 20 19
30 29 27 26 24 22 21 18 17 16 15 14 14 14 14 13 12 13 14 14 13 12 11 10 10 11 11 12 12 13 14 15 16 17 19 20 21 21 21 20 22 23 23 22 22 23 22 21 20
Wind_Direction
2 1 7 10 10 18 24 37 39 42 44 42 41 40 39 41 39 40 48 62 72 88 99 116 114 114 110 109 107 102 96 92 88 84 79 76 77 76 76 77 76 78 77 78 81 81 80 81 82
352 347 353 356 0 9 20 31 36 39 37 38 40 38 35 32 30 34 42 55 70 91 124 142 129 118 111 110 109 104 100 96 89 86 80 77 77 77 76 73 71 72 72 72 73 77 81 83 82
338 337 339 343 350 359 13 34 43 41 35 32 33 31 29 28 27 24 30 44 78 100 140 158 142 129 120 116 112 108 106 102 96 91 83 80 81 77 74 74 72 73 75 73 76 81 83 84 81
320 320 322 328 339 347 0 26 44 43 32 28 29 28 23 22 21 20 20 33 92 123 149 165 154 137 125 125 121 115 113 111 104 96 91 85 82 78 76 77 76 76 76 73 75 78 80 81 79
308 308 312 320 324 328 347 3 21 34 36 30 29 24 16 13 11 11 8 6 62 166 170 167 158 143 128 132 134 127 121 118 110 101 96 93 91 86 80 76 75 71 69 68 69 73 79 78 80
296 299 301 306 310 316 329 340 354 13 31 30 28 22 14 10 3 358 359 346 293 207 191 182 175 163 149 143 144 141 137 129 121 111 107 102 94 97 88 78 66 64 62 64 68 69 75 81 87
289 291 291 295 303 311 322 325 336 356 10 25 25 23 14 10 2 356 349 331 287 241 216 197 185 174 165 159 158 160 160 153 142 129 123 117 108 103 94 81 69 62 61 64 65 65 79 88 97
283 284 285 288 293 300 311 315 326 354 13 14 18 15 12 5 357 353 344 328 298 266 241 213 199 190 189 187 182 180 179 175 166 151 143 136 125 114 99 84 70 59 56 63 62 75 88 94 100
278 278 279 281 283 290 296 297 306 328 348 1 8 9 2 355 345 340 332 319 306 290 259 217 202 202 201 199 197 196 192 190 186 174 163 159 151 144 129 105 76 63 58 68 69 93 109 107 108
271 273 272 273 278 284 290 291 297 312 328 337 350 357 353 348 341 331 324 310 298 294 272 237 217 205 202 203 205 205 203 205 202 194 186 180 175 173 168 160 125 83 72 84 96 115 136 131 121
264 265 267 269 273 278 285 290 297 304 316 331 345 347 345 340 335 329 321 311 300 295 276 245 229 222 217 212 211 211 213 215 213 209 207 200 193 189 192 197 190 164 135 129 128 130 151 162 151
259 259 262 264 267 271 279 287 294 298 307 316 327 332 335 329 322 321 315 303 299 291 281 256 240 238 234 224 218 220 219 218 218 218 218 217 211 206 208 215 217 215 215 202 174 179 180 183 178
254 254 256 259 261 265 271 277 284 289 295 305 312 317 323 321 314 313 310 301 295 289 282 265 248 239 237 233 229 228 225 221 225 227 222 221 219 218 222 226 231 230 228 225 211 209 205 204 204
253 251 252 253 257 261 267 274 281 285 288 296 302 309 313 307 306 304 303 297 291 288 280 270 254 242 235 236 234 229 226 226 225 225 222 221 221 225 228 231 235 234 230 229 221 217 218 216 216
252 251 251 251 254 258 264 270 278 280 281 286 292 297 300 298 297 298 297 292 286 280 276 270 251 239 235 235 233 229 230 228 228 224 223 222 224 228 233 235 237 238 233 232 228 225 225 222 221
249 247 247 249 250 255 260 263 268 272 273 273 277 284 292 293 292 295 295 288 280 274 271 265 255 243 235 232 231 233 234 233 231 226 225 225 226 230 235 236 235 236 234 231 228 228 221 219 224
246 244 244 246 249 252 256 257 259 266 268 269 269 276 286 289 288 292 291 282 276 269 270 267 259 251 239 233 235 239 238 236 232 230 228 230 230 229 231 233 233 233 233 229 228 227 222 220 220
245 243 242 243 247 249 254 256 255 259 264 264 268 277 283 288 289 290 289 283 275 266 265 264 261 256 246 240 240 239 239 238 235 234 232 230 231 230 230 231 231 232 232 228 223 220 218 216 214
242 240 238 239 245 248 252 254 253 256 259 262 268 277 285 286 282 283 285 287 280 270 267 266 264 258 249 247 242 237 237 236 237 236 235 232 232 231 229 228 230 229 227 223 219 218 218 214 214
239 237 235 236 241 245 249 251 252 257 258 261 263 270 281 282 285 284 284 287 281 271 266 266 265 258 251 246 240 235 235 233 234 233 234 234 231 228 229 226 226 225 222 220 220 220 219 219 219
235 233 232 233 237 243 248 248 248 255 260 261 263 268 275 277 277 279 278 282 280 273 266 263 264 260 252 246 240 237 235 234 232 229 232 234 233 235 236 228 224 222 221 221 219 219 219 221 223
229 227 229 233 236 241 246 245 248 255 260 264 265 268 270 276 276 275 276 278 279 277 266 264 264 259 254 245 241 236 234 232 229 228 231 232 231 233 231 230 225 223 225 224 221 218 218 220 221
222 224 228 232 236 240 246 250 250 256 261 264 265 268 268 272 275 276 277 278 276 274 270 265 261 259 253 246 242 238 235 231 227 227 230 229 229 229 230 230 228 226 226 225 224 221 221 221 222
220 223 228 232 237 241 247 252 252 255 259 262 265 265 266 268 272 275 278 281 283 277 272 271 262 257 250 243 240 236 232 230 230 231 230 229 229 230 229 228 229 229 227 226 225 222 222 223 224
220 222 226 232 237 243 247 252 254 255 258 261 262 260 261 264 269 275 279 277 282 279 274 270 262 256 248 239 236 236 231 226 227 228 230 229 229 229 228 228 229 228 226 225 224 223 224 226 227
221 225 230 236 241 245 248 252 254 255 257 260 261 257 257 262 270 275 276 275 277 279 275 269 261 253 245 239 237 239 230 225 224 226 229 227 228 228 227 227 227 225 224 224 225 225 226 227 230
221 224 229 234 239 243 247 251 252 255 258 259 256 251 254 261 275 279 276 274 277 279 273 266 257 249 242 236 232 235 233 228 229 230 229 229 228 229 228 228 226 225 226 226 225 224 226 231 234
220 224 227 232 236 241 246 249 250 255 259 257 252 253 260 265 275 276 272 274 279 280 271 263 254 242 238 231 231 233 234 232 231 231 232 232 231 229 230 228 226 226 226 226 224 225 228 232 236
219 222 227 232 236 240 245 247 249 252 255 256 253 256 264 268 270 272 269 273 276 279 268 256 253 243 235 232 231 231 233 234 234 233 232 233 232 232 231 230 226 226 227 228 227 227 229 233 237
220 224 228 231 236 241 245 247 248 252 255 258 258 263 265 268 273 276 275 275 273 276 265 256 250 242 239 234 235 235 235 236 237 237 236 234 233 233 234 234 229 227 228 230 229 228 229 234 238
Height
5876 5876 5876 5877 5877 5876 5875 5874 5873 5872 5872 5872 5872 5871 5871 5871 5872 5873 5872 5870 5871 5872 5873 5874 5874 5875 5876 5876 5877 5878 5879 5881 5882 5883 5884 5885 5886 5887 5888 5888 5889 5889 5890 5890 5890 5890 5891 5891 5891
5876 5876 5877 5877 5877 5876 5876 5875 5874 5873 5873 5872 5872 5871 5872 5871 5871 5871 5871 5871 5871 5872 5873 5874 5875 5875 5876 5877 5878 5879 5880 5882 5883 5884 5885 5886 5887 5888 5889 5889 5890 5890 5891 5891 5891 5891 5892 5892 5892
5876 5876 5877 5877 5876 5876 5876 5875 5875 5874 5873 5873 5872 5872 5872 5872 5872 5871 5871 5871 5872 5872 5873 5874 5875 5876 5877 5878 5879 5880 5881 5882 5884 5885 5886 5887 5888 5889 5889 5890 5891 5891 5891 5892 5892 5893 5893 5893 5893
5876 5877 5877 5877 5876 5876 5876 5876 5875 5875 5874 5873 5873 5873 5873 5873 5872 5872 5872 5872 5872 5873 5873 5874 5875 5876 5877 5878 5879 5880 5882 5883 5884 5885 5886 5887 5888 5889 5890 5891 5891 5892 5892 5893 5893 5893 5894 5894 5894
5876 5876 5876 5876 5875 5875 5875 5875 5875 5875 5874 5874 5873 5873 5873 5873 5872 5872 5872 5872 5872 5873 5873 5874 5875 5876 5877 5878 5879 5881 5882 5883 5885 5886 5887 5888 5889 5890 5891 5891 5892 5892 5893 5893 5894 5894 5894 5895 5895
5875 5875 5875 5875 5874 5875 5875 5875 5875 5875 5874 5874 5874 5873 5873 5872 5872 5872 5872 5872 5872 5873 5873 5874 5875 5876 5877 5878 5880 5881 5882 5884 5885 5886 5887 5888 5889 5890 5891 5891 5892 5892 5893 5893 5894 5894 5895 5895 5896
5874 5874 5874 5874 5873 5874 5874 5874 5874 5874 5874 5874 5874 5873 5873 5872 5872 5872 5872 5872 5872 5873 5873 5874 5875 5876 5877 5878 5880 5881 5882 5884 5885 5886 5887 5888 5889 5890 5891 5892 5892 5893 5893 5894 5894 5895 5895 5896 5896
5872 5873 5872 5872 5872 5873 5873 5873 5873 5873 5874 5874 5873 5873 5873 5873 5872 5872 5872 5872 5872 5872 5873 5873 5874 5875 5876 5878 5879 5881 5882 5883 5884 5886 5887 5888 5889 5890 5891 5892 5892 5893 5893 5894 5894 5895 5895 5896 5896
5870 5872 5871 5871 5871 5871 5872 5872 5873 5873 5873 5873 5873 5873 5873 5872 5872 5872 5872 5871 5871 5872 5872 5872 5873 5874 5876 5877 5878 5880 5881 5883 5884 5885 5886 5887 5889 5890 5891 5892 5892 5893 5893 5894 5894 5895 5895 5896 5896
5868 5869 5869 5869 5869 5869 5870 5871 5872 5872 5872 5872 5872 5872 5872 5871 5871 5871 5871 5871 5871 5871 5871 5872 5873 5874 5875 5876 5878 5879 5881 5882 5884 5885 5886 5887 5888 5889 5890 5891 5892 5893 5893 5894 5894 5895 5895 5896 5896
5866 5867 5866 5867 5867 5868 5868 5869 5870 5871 5871 5871 5871 5871 5870 5870 5870 5870 5870 5870 5870 5870 5870 5871 5871 5873 5874 5875 5877 5878 5880 5881 5883 5884 5885 5886 5888 5889 5890 5891 5892 5893 5893 5894 5894 5895 5895 5896 5897
5863 5864 5864 5864 5865 5866 5867 5868 5869 5870 5870 5870 5870 5870 5869 5869 5869 5869 5869 5868 5868 5868 5869 5869 5870 5871 5873 5874 5875 5877 5878 5880 5881 5883 5884 5885 5887 5888 5889 5890 5891 5892 5893 5894 5894 5895 5895 5896 5896
5860 5860 5861 5862 5863 5864 5865 5866 5867 5868 5868 5868 5868 5868 5868 5868 5867 5867 5867 5867 5867 5867 5867 5868 5869 5870 5871 5872 5874 5875 5877 5878 5880 5881 5883 5884 5886 5887 5888 5889 5891 5892 5892 5893 5894 5895 5895 5896 5896
5856 5857 5858 5859 5860 5861 5863 5864 5865 5865 5865 5866 5866 5867 5867 5866 5866 5865 5866 5865 5865 5865 5866 5866 5867 5868 5869 5870 5872 5873 5875 5876 5878 5880 5881 5882 5884 5885 5887 5888 5890 5891 5892 5892 5893 5894 5895 5895 5896
5852 5854 5856 5857 5857 5858 5860 5862 5862 5863 5863 5864 5865 5865 5865 5864 5864 5863 5863 5863 5863 5864 5864 5864 5865 5866 5867 5868 5870 5871 5873 5874 5876 5878 5879 5881 5882 5884 5886 5887 5888 5889 5890 5891 5892 5893 5894 5894 5895
5848 5850 5852 5854 5854 5855 5858 5859 5860 5860 5861 5861 5862 5863 5863 5863 5862 5861 5861 5861 5861 5861 5862 5862 5863 5864 5865 5866 5868 5869 5871 5872 5874 5876 5877 5879 5881 5882 5884 5885 5887 5888 5889 5890 5891 5892 5893 5894 5894
5844 5846 5849 5850 5851 5852 5854 5856 5857 5857 5858 5859 5859 5860 5860 5860 5859 5859 5858 5858 5858 5859 5859 5859 5861 5862 5862 5864 5865 5867 5868 5870 5871 5873 5875 5877 5878 5880 5882 5883 5885 5886 5888 5889 5890 5891 5892 5893 5894
5841 5843 5845 5846 5847 5849 5850 5852 5854 5854 5855 5856 5857 5857 5857 5857 5857 5856 5856 5855 5855 5856 5857 5857 5858 5859 5860 5861 5862 5864 5866 5867 5869 5870 5872 5874 5876 5878 5879 5881 5883 5884 5886 5887 5888 5890 5891 5892 5893
5836 5838 5841 5843 5843 5845 5847 5849 5850 5851 5852 5853 5854 5855 5855 5855 5854 5854 5853 5852 5852 5853 5854 5854 5855 5856 5857 5858 5859 5860 5863 5864 5866 5867 5869 5872 5874 5875 5877 5879 5880 5882 5884 5885 5887 5888 5890 5891 5892
5831 5834 5837 5839 5840 5842 5843 5845 5847 5848 5849 5850 5851 5851 5852 5852 5851 5851 5850 5850 5850 5850 5850 5851 5852 5852 5853 5854 5855 5857 5858 5860 5862 5865 5867 5869 5870 5873 5875 5876 5878 5880 5882 5883 5885 5887 5888 5890 5891
5827 5830 5833 5835 5836 5838 5840 5842 5844 5845 5846 5847 5847 5848 5848 5848 5848 5848 5848 5848 5847 5847 5847 5848 5849 5849 5849 5850 5851 5853 5855 5857 5859 5861 5864 5866 5868 5870 5872 5874 5876 5878 5880 5881 5883 5885 5886 5888 5889
5823 5826 5828 5830 5832 5834 5836 5838 5840 5841 5842 5843 5844 5844 5845 5845 5845 5845 5845 5845 5844 5844 5844 5845 5845 5845 5845 5846 5847 5849 5851 5854 5856 5858 5861 5863 5865 5867 5869 5871 5873 5875 5877 5879 5881 5883 5884 5886 5888
5819 5821 5823 5825 5827 5830 5832 5834 5837 5838 5839 5839 5840 5841 5842 5843 5842 5842 5842 5841 5841 5841 5841 5841 5841 5841 5841 5842 5843 5845 5847 5849 5852 5854 5857 5859 5862 5864 5866 5868 5871 5873 5875 5877 5879 5881 5882 5884 5886
5813 5815 5818 5821 5823 5826 5829 5830 5833 5834 5836 5836 5837 5838 5839 5839 5839 5839 5838 5838 5838 5838 5837 5837 5837 5837 5837 5838 5839 5841 5843 5846 5848 5851 5853 5856 5858 5860 5863 5865 5868 5870 5872 5874 5876 5878 5880 5882 5883
5807 5811 5814 5816 5819 5822 5825 5826 5830 5831 5832 5833 5834 5835 5835 5836 5836 5836 5835 5835 5834 5834 5833 5833 5833 5833 5834 5834 5835 5837 5839 5842 5845 5847 5849 5852 5855 5857 5859 5862 5864 5867 5869 5871 5873 5875 5877 5879 5881
5803 5807 5811 5814 5816 5819 5821 5822 5826 5827 5828 5829 5830 5831 5831 5832 5832 5832 5832 5831 5831 5831 5830 5829 5829 5829 5830 5831 5832 5833 5836 5839 5841 5844 5846 5848 5851 5853 5856 5858 5860 5863 5865 5868 5870 5872 5875 5876 5878
5798 5802 5807 5810 5812 5815 5817 5819 5822 5823 5824 5825 5826 5827 5828 5828 5829 5828 5828 5828 5827 5827 5826 5826 5825 5826 5827 5828 5830 5832 5834 5836 5838 5840 5843 5845 5847 5850 5852 5854 5857 5859 5861 5864 5866 5869 5871 5873 5875
5795 5799 5802 5805 5808 5811 5813 5815 5818 5819 5821 5821 5822 5823 5824 5825 5825 5825 5825 5824 5824 5824 5823 5822 5822 5823 5825 5826 5827 5829 5831 5833 5835 5837 5840 5842 5844 5846 5848 5850 5852 5855 5858 5860 5863 5865 5868 5870 5871
5791 5794 5797 5801 5804 5807 5809 5814 5814 5816 5817 5818 5819 5820 5821 5821 5821 5821 5821 5821 5822 5821 5820 5820 5820 5821 5822 5824 5825 5827 5828 5830 5832 5834 5836 5838 5840 5842 5844 5846 5848 5851 5854 5856 5859 5861 5864 5866 5868
5786 5790 5794 5798 5801 5804 5806 5812 5811 5813 5814 5815 5816 5817 5817 5818 5818 5818 5818 5818 5818 5818 5818 5818 5819 5819 5820 5821 5822 5824 5825 5827 5828 5830 5832 5834 5836 5838 5840 5842 5844 5846 5849 5852 5854 5857 5859 5862 5863